Little Rock AFB, AR

8:22 PM CDT on May 25, 2017 (GMT -0500)
Little Rock Air Force Base

Weather History for KLRF - November, 2012

Change the Weather History Date:

Wednesday, November 21, 2012

  Actual Average Record
Temperature  
Mean Temperature 54 °F -  
Max Temperature 70 °F 60 °F 75 °F (1990)
Min Temperature 39 °F 38 °F 20 °F (1981)
Degree Days  
Heating Degree Days 10    
Growing Degree Days 4 (Base 50)    
Moisture  
Dew Point 43 °F    
Average Humidity 77    
Maximum Humidity 100    
Minimum Humidity 44    
Precipitation  
Precipitation 0.00 in - - ()
Sea Level Pressure  
Sea Level Pressure 30.23 in    
Wind  
Wind Speed 2 mph (WSW)    
Max Wind Speed 7 mph    
Max Gust Speed -    
Visibility 9 miles    
Events      
Averages and records for this station are not official NWS values.
T = Trace of Precipitation, MM = Missing Value Source: NWS Daily Summary

Daily Weather History Graph

Daily Weather History Graph

Search for Another Location

Airport or City:

Trip Planner

Search our weather history database for the weather conditions in past years. The results will help you decide how hot, cold, wet, or windy it might be!

Date:

Astronomy

Nov. 21, 2012 Rise Set
Actual Time 6:49 AM CST 4:59 PM CST
Civil Twilight 6:21 AM CST 5:27 PM CST
Nautical Twilight 5:51 AM CST 5:57 PM CST
Astronomical Twilight 5:20 AM CST 6:28 PM CST
Moon 1:03 PM CST (11/21) 12:23 AM CST (11/21)
Length of Visible Light 11h 05m
Length of Day
10h 10m
First Quarter, 62% of the Moon is Illuminated
Nov 21
First Quarter
Nov 28
Full
Dec 6
Last Quarter
Dec 13
New
Dec 19
First Quarter

Hourly Weather History & Observations

Time (CST) Temp. Windchill Dew Point Humidity Pressure Visibility Wind Dir Wind Speed Gust Speed Precip Events Conditions
12:55 AM 50.4 °F - 42.8 °F 75% 30.20 in 10.0 mi WSW 4.6 mph - N/A   Clear
1:55 AM 44.1 °F - 40.3 °F 87% 30.21 in 10.0 mi Calm Calm - N/A   Clear
2:55 AM 42.6 °F - 39.6 °F 89% 30.22 in 10.0 mi Calm Calm - N/A   Clear
3:55 AM 42.6 °F - 39.6 °F 89% 30.23 in 10.0 mi Calm Calm - N/A   Clear
4:55 AM 42.3 °F - 38.5 °F 86% 30.24 in 10.0 mi Calm Calm - N/A   Clear
5:55 AM 40.5 °F 35.8 °F 38.3 °F 92% 30.24 in 10.0 mi SW 6.9 mph - N/A   Clear
6:55 AM 41.2 °F - 38.5 °F 90% 30.26 in 10.0 mi Calm Calm - N/A   Clear
7:55 AM 44.8 °F 42.4 °F 42.6 °F 92% 30.29 in 10.0 mi WSW 4.6 mph - N/A   Clear
8:55 AM 52.9 °F - 45.7 °F 77% 30.30 in 10.0 mi Calm Calm - N/A   Clear
9:55 AM 58.6 °F - 47.8 °F 67% 30.31 in 10.0 mi West 3.5 mph - N/A   Clear
10:55 AM 62.6 °F - 49.1 °F 61% 30.30 in 10.0 mi NE 5.8 mph - N/A   Clear
11:55 AM 65.7 °F - 48.4 °F 54% 30.27 in 10.0 mi ENE 4.6 mph - N/A   Clear
12:55 PM 67.6 °F - 48.6 °F 50% 30.24 in 10.0 mi Calm Calm - N/A   Clear
1:55 PM 69.4 °F - 48.6 °F 47% 30.22 in 10.0 mi East 5.8 mph - N/A   Clear
2:55 PM 70.2 °F - 47.5 °F 44% 30.21 in 10.0 mi Calm Calm - N/A   Clear
3:55 PM 69.3 °F - 48.0 °F 47% 30.20 in 10.0 mi Variable 4.6 mph - N/A   Clear
4:55 PM 61.3 °F - 48.7 °F 63% 30.20 in 10.0 mi Calm Calm - N/A   Clear
5:55 PM 53.4 °F - 47.3 °F 80% 30.21 in 10.0 mi Calm Calm - N/A   Clear
6:55 PM 48.9 °F - 45.0 °F 86% 30.21 in 10.0 mi Calm Calm - N/A   Clear
7:55 PM 45.7 °F - 43.2 °F 91% 30.20 in 10.0 mi Calm Calm - N/A   Clear
8:55 PM 43.7 °F - 41.4 °F 91% 30.21 in 10.0 mi Calm Calm - N/A   Clear
9:55 PM 43.0 °F - 40.8 °F 92% 30.22 in 10.0 mi Calm Calm - N/A   Clear
10:55 PM 41.7 °F - 39.4 °F 91% 30.21 in 10.0 mi Calm Calm - N/A   Clear
11:55 PM 39.2 °F - 37.4 °F 93% 30.20 in 1.5 mi Calm Calm - N/A   Clear
11:58 PM 39.2 °F - 39.2 °F 100% 30.20 in 1.5 mi Calm Calm - N/A   Clear